Wind_Speed
27 26 24 21 20 19 20 21 21 21 21 21 20 20 21 20 20 21 22 23 23 22 21 22 22 20 19 19 20 19 19 17 16 15 14 12 11 10 10 11 13 15 16
28 29 26 23 22 21 20 21 21 22 22 22 21 21 21 22 22 22 23 24 25 24 24 24 24 23 21 21 21 21 21 20 19 17 15 13 12 9 8 9 10 13 14
30 31 28 24 23 21 21 21 21 21 22 22 21 22 22 23 23 24 25 26 27 26 25 24 25 25 24 22 20 20 23 22 21 19 18 15 13 10 8 7 8 10 11
30 32 29 25 23 22 22 21 21 20 20 20 21 22 23 23 24 26 27 28 28 28 27 26 26 26 25 22 21 18 19 21 21 20 19 19 17 14 10 8 7 7 9
30 32 29 25 24 23 22 20 19 19 19 19 20 22 24 25 26 27 28 29 29 28 26 26 26 27 25 23 20 19 19 20 21 21 20 20 20 18 14 11 9 8 8
29 31 27 25 24 22 20 19 19 20 20 21 22 23 25 27 27 28 28 28 27 26 25 25 26 26 25 23 22 21 20 20 21 23 23 22 22 22 18 15 13 11 10
26 27 24 23 22 20 19 19 19 20 21 22 23 25 26 26 27 27 26 26 25 24 24 23 24 24 23 23 23 22 22 21 23 23 24 24 24 24 22 20 17 15 13
20 20 19 19 18 17 18 19 20 21 22 23 25 26 26 26 25 25 24 23 21 21 21 20 19 20 21 21 22 23 22 24 25 25 25 26 27 26 25 23 21 18 17
16 15 15 15 16 17 18 19 20 21 22 24 24 25 24 24 23 22 21 20 19 18 17 16 16 16 17 18 19 20 21 22 24 26 26 27 29 29 28 27 25 22 20
17 16 16 16 16 17 19 20 21 21 22 22 22 23 23 22 21 20 19 19 18 17 16 16 15 15 16 17 19 20 21 22 23 24 26 27 29 30 31 30 29 27 24
17 18 17 15 15 16 18 20 21 21 22 22 22 22 22 21 20 19 18 18 18 18 17 17 16 16 17 17 19 19 20 22 23 24 25 27 29 31 32 33 32 30 28
18 18 16 15 16 17 18 19 21 22 23 22 22 22 22 21 20 19 18 18 18 19 19 19 18 18 18 18 19 19 19 20 21 23 25 25 29 31 33 34 34 32 31
17 18 19 18 19 20 20 21 21 22 22 23 23 23 22 21 20 19 18 19 19 19 20 21 21 20 20 20 20 20 20 20 20 21 23 23 25 29 33 35 34 32 32
20 21 21 20 21 22 22 22 22 23 23 24 24 24 23 22 21 20 19 20 20 20 20 21 22 22 23 23 23 23 23 22 22 21 21 22 24 26 30 33 34 33 33
23 24 24 23 22 22 22 22 23 24 24 24 25 24 23 22 22 21 22 22 22 21 21 21 22 23 23 24 24 24 24 23 23 22 20 20 22 23 24 28 31 33 32
23 23 23 22 21 21 21 21 23 23 24 24 24 23 24 24 23 23 23 23 23 23 23 23 22 23 23 24 25 25 25 24 23 22 21 20 20 21 22 23 26 29 30
17 17 18 18 18 18 19 20 20 21 22 23 23 23 24 24 24 24 24 24 24 25 25 25 24 24 24 25 26 26 26 26 25 25 23 22 21 21 21 21 22 25 27
9 10 11 13 14 15 16 18 18 19 21 22 22 22 23 24 25 25 25 25 25 25 26 26 26 25 25 26 26 27 27 27 26 26 25 24 23 22 22 22 22 23 25
3 4 6 8 9 12 14 16 17 18 19 20 21 23 24 25 26 26 25 25 25 25 26 26 26 26 26 26 26 26 27 27 27 27 26 25 25 24 24 23 23 23 23
2 1 4 6 9 11 14 16 17 18 19 20 22 23 25 25 25 24 23 23 23 23 23 24 25 25 26 26 26 26 26 27 27 27 27 27 26 25 24 24 24 24 24
3 4 6 8 11 13 15 16 16 17 19 21 22 23 23 23 22 21 21 20 20 21 21 22 23 24 25 25 27 27 27 27 27 27 27 27 27 26 25 24 24 24 25
5 7 9 11 13 14 14 15 16 17 19 21 22 22 22 21 20 19 18 18 19 20 21 22 23 24 25 26 27 27 28 28 28 28 27 26 26 26 25 25 25 24 24
7 9 11 12 12 13 14 15 16 18 19 20 21 21 20 19 17 17 17 17 18 20 21 22 23 25 26 27 28 28 29 28 28 27 26 26 25 24 24 24 24 24 24
10 11 12 12 12 13 14 15 17 18 19 19 19 19 18 17 17 16 16 16 17 19 19 20 22 24 25 26 27 28 28 28 27 26 24 23 23 23 22 23 23 23 23
11 12 12 12 12 13 14 15 16 17 18 19 19 19 18 17 16 14 14 15 16 17 18 18 18 19 20 21 22 23 24 24 24 23 22 21 21 22 22 22 23 23 23
12 12 12 12 13 14 14 15 17 18 19 20 19 18 16 15 13 13 13 14 14 15 15 15 14 13 12 11 13 15 16 17 18 18 18 18 19 20 20 20 21 21 21
Wind_Direction
280 276 275 276 277 280 285 289 293 296 298 302 303 303 302 302 298 296 297 299 300 297 294 294 295 293 286 267 253 247 244 239 237 237 240 246 260 268 261 248 241 238 238
273 269 271 274 276 277 279 284 290 295 299 303 303 301 301 300 300 298 297 296 295 293 291 289 288 288 288 279 257 244 239 236 235 235 235 240 248 257 255 246 238 233 233
267 268 268 270 273 275 277 282 287 292 297 300 299 299 300 300 300 299 297 296 294 291 288 285 284 284 286 282 264 249 238 234 233 231 230 229 234 239 243 240 234 229 227
260 263 266 268 270 272 275 279 286 291 294 296 297 299 300 301 301 300 298 295 293 289 285 281 279 279 281 277 270 257 247 239 235 229 227 226 226 229 230 233 231 228 226
253 257 261 264 265 268 273 278 284 291 295 297 298 299 301 301 301 299 297 294 292 289 284 278 274 274 274 272 266 259 255 248 242 234 228 226 224 226 226 226 226 226 226
248 252 256 257 259 264 271 278 288 293 297 299 299 300 301 301 300 299 297 294 292 289 285 278 272 269 268 264 261 257 256 256 251 243 234 228 225 225 224 224 225 227 229
247 248 249 251 255 261 272 282 289 292 296 298 299 300 300 298 297 296 295 294 293 290 285 278 271 266 262 259 258 256 257 257 257 252 243 233 228 227 226 227 227 229 232
251 251 246 246 253 263 275 284 289 292 296 298 299 299 297 295 294 292 292 293 292 290 285 277 270 262 258 256 257 257 259 258 258 255 250 239 232 229 228 229 229 230 233
261 256 250 251 260 271 278 283 288 293 296 297 298 298 296 294 293 291 290 290 289 287 284 277 271 263 258 257 259 260 261 260 259 257 252 244 237 233 230 229 229 231 233
259 253 251 255 264 272 279 284 289 293 296 297 297 298 298 296 294 292 288 285 283 280 279 277 273 268 264 263 265 265 263 261 259 258 253 248 242 237 233 231 229 231 234
245 242 244 251 261 272 281 287 293 296 297 297 296 297 299 298 296 292 288 285 281 276 275 274 271 268 267 267 269 269 268 264 259 257 254 247 243 240 237 235 232 231 234
255 263 270 275 278 280 283 288 293 297 298 297 298 300 302 301 297 292 288 287 284 278 273 271 270 269 267 268 270 271 272 271 264 258 255 250 242 240 237 236 233 232 236
260 267 271 274 280 284 287 290 293 296 296 296 299 302 304 302 298 293 290 288 286 282 276 271 270 269 267 267 269 270 271 273 270 263 259 254 247 243 239 238 237 238 239
268 269 269 271 277 282 286 289 290 293 294 295 299 302 303 302 298 294 291 290 288 284 280 274 270 268 266 265 267 267 268 269 269 268 264 258 254 250 241 238 238 240 241
267 267 268 269 271 275 279 284 288 289 293 296 299 301 302 302 299 295 292 289 287 285 283 278 273 270 267 265 264 264 265 267 267 267 266 261 255 252 247 243 241 242 241
263 263 264 268 269 270 275 280 283 288 292 295 297 298 298 298 296 294 291 288 287 286 284 281 277 273 269 267 264 262 262 263 264 264 263 262 259 255 253 250 246 243 242
259 256 258 260 262 268 275 280 284 288 291 294 296 297 298 298 297 295 292 289 287 285 284 281 277 274 270 268 266 263 262 262 262 263 263 263 262 259 256 254 252 251 247
251 251 253 259 267 275 279 285 289 291 293 297 298 299 299 298 297 296 293 289 287 284 282 280 277 273 270 269 268 265 263 263 262 262 262 262 261 259 258 257 256 255 253
222 251 265 273 279 285 291 294 297 298 298 298 300 301 301 299 297 295 292 289 287 283 280 277 275 272 269 269 268 266 264 263 262 261 260 261 260 259 258 257 256 256 256
89 324 303 300 300 302 303 303 303 303 302 303 304 303 302 301 299 296 293 290 288 285 281 277 274 271 268 266 265 264 262 261 260 258 258 258 258 258 257 256 256 256 258
27 347 329 320 314 311 309 308 307 306 306 307 308 307 305 304 301 297 294 292 290 288 284 280 276 272 268 266 264 263 260 259 257 256 256 256 255 255 255 255 255 255 257
356 340 329 322 317 314 313 311 310 310 310 311 312 311 309 307 302 298 296 295 294 292 288 284 280 275 270 265 262 260 259 257 256 255 254 253 253 253 252 253 254 255 257
341 331 324 320 317 316 316 314 313 314 314 314 315 314 311 309 305 303 301 300 298 295 291 288 283 278 272 266 262 259 258 256 256 254 253 251 250 250 247 248 250 252 254
334 327 323 321 321 321 321 320 319 319 320 319 319 318 316 313 310 308 307 307 307 305 298 294 290 283 276 268 262 259 256 254 254 253 251 248 246 246 246 246 248 249 251
334 330 327 325 324 325 326 327 327 327 328 326 323 321 319 317 315 313 313 314 315 317 314 310 305 297 286 274 264 259 255 251 249 247 245 244 243 244 245 245 247 248 249
336 334 332 330 329 331 334 335 335 333 332 329 325 322 320 320 319 319 322 324 327 331 333 329 324 316 306 284 267 256 247 240 237 236 236 237 238 240 240 242 244 247 251
Height
5851 5851 5851 5852 5851 5851 5850 5849 5849 5848 5847 5846 5845 5845 5845 5845 5844 5843 5841 5840 5839 5839 5838 5837 5836 5836 5836 5836 5836 5837 5838 5839 5840 5841 5842 5843 5844 5844 5845 5846 5847 5850 5852
5846 5845 5846 5847 5847 5847 5846 5846 5845 5843 5843 5842 5841 5840 5840 5839 5839 5838 5837 5835 5834 5834 5834 5833 5832 5832 5832 5831 5831 5832 5833 5835 5836 5838 5839 5840 5842 5842 5843 5844 5845 5847 5849
5839 5839 5840 5842 5842 5842 5842 5841 5840 5839 5838 5837 5836 5836 5835 5833 5833 5832 5830 5829 5828 5828 5828 5828 5827 5827 5827 5827 5827 5827 5829 5830 5832 5834 5836 5838 5839 5840 5841 5842 5843 5845 5847
5833 5832 5834 5836 5837 5837 5836 5836 5835 5835 5834 5833 5832 5830 5829 5828 5827 5825 5824 5822 5822 5821 5821 5821 5821 5821 5821 5821 5822 5822 5824 5825 5827 5829 5832 5835 5836 5838 5839 5841 5842 5843 5845
5826 5825 5828 5830 5831 5831 5831 5831 5830 5830 5829 5828 5827 5825 5824 5822 5821 5819 5817 5815 5814 5814 5813 5814 5814 5815 5815 5816 5817 5818 5819 5821 5823 5824 5827 5830 5833 5835 5837 5838 5840 5842 5843
5819 5819 5822 5823 5824 5825 5825 5826 5825 5825 5824 5823 5821 5820 5818 5816 5814 5812 5811 5809 5808 5807 5806 5806 5807 5808 5809 5810 5811 5812 5814 5816 5817 5819 5822 5825 5828 5831 5833 5835 5837 5839 5841
5811 5813 5815 5817 5818 5819 5820 5820 5820 5820 5819 5817 5816 5814 5812 5810 5808 5806 5804 5803 5802 5801 5800 5800 5800 5801 5802 5804 5805 5807 5809 5810 5812 5813 5816 5819 5823 5826 5829 5832 5834 5836 5838
5805 5808 5809 5811 5813 5814 5815 5815 5815 5814 5813 5811 5809 5808 5806 5804 5802 5801 5799 5797 5796 5795 5794 5794 5794 5795 5796 5798 5799 5801 5803 5804 5805 5807 5809 5813 5817 5821 5824 5827 5830 5832 5835
5801 5803 5804 5806 5808 5809 5810 5810 5810 5809 5807 5806 5804 5802 5800 5798 5797 5795 5794 5792 5791 5791 5790 5789 5790 5790 5791 5793 5794 5795 5797 5798 5799 5800 5802 5806 5810 5814 5818 5822 5825 5828 5830
5795 5797 5799 5801 5803 5804 5804 5804 5804 5803 5802 5800 5799 5797 5795 5793 5792 5790 5789 5788 5787 5787 5786 5786 5786 5787 5787 5788 5789 5790 5792 5792 5793 5794 5797 5799 5803 5807 5812 5815 5819 5823 5826
5788 5789 5791 5794 5796 5799 5799 5798 5798 5797 5796 5795 5793 5792 5790 5788 5786 5785 5784 5783 5782 5782 5782 5782 5782 5782 5783 5783 5784 5785 5786 5787 5788 5789 5790 5793 5796 5799 5804 5808 5812 5816 5820
5787 5788 5789 5791 5792 5794 5794 5794 5793 5792 5791 5790 5788 5787 5785 5783 5781 5780 5779 5778 5778 5777 5777 5777 5777 5778 5778 5779 5779 5780 5780 5781 5782 5783 5785 5786 5789 5792 5796 5800 5804 5808 5812
5784 5785 5787 5787 5788 5788 5788 5788 5787 5787 5786 5784 5783 5782 5780 5778 5776 5775 5774 5773 5773 5772 5772 5772 5772 5773 5773 5774 5774 5775 5775 5776 5777 5778 5779 5780 5782 5785 5788 5792 5797 5801 5804
5779 5781 5782 5783 5784 5783 5783 5782 5782 5781 5780 5779 5778 5776 5775 5773 5772 5770 5769 5768 5767 5767 5766 5766 5766 5767 5767 5768 5769 5769 5770 5771 5772 5773 5774 5775 5776 5778 5781 5784 5789 5793 5797
5774 5775 5776 5777 5778 5778 5778 5777 5776 5776 5775 5774 5772 5771 5769 5768 5766 5765 5763 5762 5761 5761 5760 5760 5760 5760 5761 5761 5762 5763 5764 5765 5766 5767 5768 5769 5771 5772 5775 5778 5781 5785 5789
5767 5768 5769 5771 5772 5772 5772 5772 5771 5770 5769 5768 5767 5766 5764 5762 5760 5759 5757 5756 5755 5754 5754 5753 5753 5754 5754 5755 5755 5757 5758 5759 5761 5762 5763 5764 5766 5767 5769 5771 5774 5777 5781
5761 5762 5764 5765 5766 5767 5767 5766 5766 5766 5764 5763 5762 5760 5758 5756 5754 5753 5751 5750 5748 5747 5747 5746 5746 5747 5747 5747 5748 5750 5751 5753 5755 5756 5758 5759 5760 5762 5764 5766 5768 5770 5773
5757 5759 5760 5762 5763 5763 5763 5763 5762 5761 5760 5758 5756 5755 5752 5750 5748 5746 5745 5743 5742 5741 5740 5739 5739 5740 5740 5740 5741 5742 5744 5746 5748 5749 5751 5753 5755 5757 5758 5760 5762 5764 5766
5756 5758 5759 5760 5760 5760 5760 5759 5758 5757 5755 5753 5751 5749 5747 5744 5742 5739 5737 5736 5735 5734 5733 5732 5732 5732 5732 5733 5734 5736 5737 5738 5740 5742 5744 5746 5748 5750 5752 5754 5755 5757 5759
5756 5757 5757 5757 5757 5757 5756 5755 5754 5753 5751 5749 5746 5744 5741 5738 5735 5732 5730 5729 5728 5726 5725 5725 5724 5724 5725 5726 5727 5728 5729 5731 5733 5734 5736 5738 5740 5742 5744 5747 5749 5750 5752
5756 5756 5756 5756 5755 5754 5753 5751 5750 5748 5747 5744 5742 5739 5735 5732 5729 5727 5725 5723 5721 5720 5719 5718 5717 5717 5718 5718 5719 5720 5721 5723 5725 5727 5729 5731 5733 5735 5737 5739 5742 5743 5745
5755 5755 5754 5753 5752 5751 5749 5748 5746 5745 5742 5740 5737 5734 5730 5727 5724 5722 5720 5718 5716 5714 5713 5711 5710 5710 5710 5710 5710 5711 5713 5715 5717 5719 5721 5724 5726 5728 5730 5733 5734 5736 5738
5755 5754 5753 5751 5750 5748 5746 5744 5743 5740 5738 5735 5732 5729 5726 5723 5720 5718 5716 5714 5711 5709 5707 5705 5703 5701 5701 5701 5701 5703 5705 5707 5709 5711 5714 5716 5719 5721 5724 5726 5728 5730 5731
5755 5753 5752 5750 5748 5746 5744 5741 5739 5737 5734 5731 5728 5725 5722 5719 5716 5714 5712 5709 5707 5704 5700 5698 5696 5693 5692 5692 5692 5694 5696 5698 5701 5704 5707 5710 5712 5715 5717 5719 5721 5723 5725
5754 5752 5750 5748 5746 5744 5742 5739 5736 5733 5731 5728 5725 5721 5718 5715 5713 5710 5708 5705 5702 5699 5695 5692 5688 5685 5683 5683 5683 5684 5687 5690 5694 5697 5701 5703 5706 5709 5711 5713 5715 5717 5718
5753 5751 5749 5747 5745 5742 5739 5736 5733 5731 5728 5725 5721 5718 5715 5712 5710 5708 5705 5702 5699 5696 5692 5687 5684 5681 5678 5677 5677 5678 5681 5684 5688 5692 5695 5698 5700 5703 5705 5707 5709 5711 5712